TimeHST,TemperatureF,Dew PointF,Humidity,Sea Level PressureIn,VisibilityMPH,Wind Direction,Wind SpeedMPH,Gust SpeedMPH,PrecipitationIn,Events,Conditions,WindDirDegrees,DateUTC
12:56 AM,69.1,64.9,87,29.92,10.0,SE,3.5,-,N/A,,Mostly Cloudy,140,2014-01-11 10:56:00
1:56 AM,66.9,64.9,93,29.90,10.0,Calm,Calm,-,N/A,,Clear,0,2014-01-11 11:56:00
2:56 AM,66.0,63.0,90,29.90,10.0,ENE,4.6,-,N/A,,Clear,70,2014-01-11 12:56:00
3:56 AM,66.9,62.1,84,29.88,10.0,ENE,4.6,-,N/A,,Clear,70,2014-01-11 13:56:00
4:56 AM,66.9,61.0,81,29.89,10.0,ENE,4.6,-,N/A,,Clear,60,2014-01-11 14:56:00
5:56 AM,64.0,61.0,90,29.90,10.0,East,3.5,-,N/A,,Clear,90,2014-01-11 15:56:00
6:56 AM,64.0,60.1,87,29.91,10.0,Calm,Calm,-,N/A,,Clear,0,2014-01-11 16:56:00
7:56 AM,64.0,61.0,90,29.92,10.0,ENE,4.6,-,N/A,,Clear,60,2014-01-11 17:56:00
8:56 AM,75.0,66.0,73,29.94,10.0,SE,4.6,-,N/A,,Clear,140,2014-01-11 18:56:00
9:56 AM,78.1,66.0,66,29.96,10.0,ESE,6.9,-,N/A,,Clear,120,2014-01-11 19:56:00
10:56 AM,79.0,66.0,64,29.95,10.0,SE,8.1,-,N/A,,Clear,140,2014-01-11 20:56:00
11:56 AM,80.1,66.0,62,29.95,10.0,South,8.1,-,N/A,,Clear,170,2014-01-11 21:56:00
12:56 PM,79.0,66.0,64,29.91,10.0,South,10.4,-,N/A,,Clear,180,2014-01-11 22:56:00
1:56 PM,80.1,66.0,62,29.88,10.0,South,11.5,-,N/A,,Clear,180,2014-01-11 23:56:00
2:56 PM,80.1,66.0,62,29.87,10.0,SSE,9.2,-,N/A,,Clear,150,2014-01-12 00:56:00
3:56 PM,79.0,66.9,66,29.88,10.0,SE,9.2,-,N/A,,Mostly Cloudy,130,2014-01-12 01:56:00
4:56 PM,78.1,66.0,66,29.88,10.0,SE,8.1,-,N/A,,Clear,140,2014-01-12 02:56:00
5:56 PM,75.0,66.9,76,29.90,10.0,SSE,5.8,-,N/A,,Clear,150,2014-01-12 03:56:00
6:56 PM,72.0,66.0,81,29.92,10.0,Calm,Calm,-,N/A,,Clear,0,2014-01-12 04:56:00
7:56 PM,-9999,-9999,N/A,29.94,10.0,ESE,3.5,-,N/A,,Clear,110,2014-01-12 05:56:00
8:56 PM,69.1,63.0,81,29.94,10.0,Calm,Calm,-,N/A,,Clear,0,2014-01-12 06:56:00
9:56 PM,69.1,63.0,81,29.95,10.0,North,3.5,-,N/A,,Partly Cloudy,360,2014-01-12 07:56:00
10:56 PM,73.0,64.9,76,29.96,10.0,Calm,Calm,-,N/A,,Overcast,0,2014-01-12 08:56:00
11:56 PM,69.1,64.9,87,29.95,10.0,Calm,Calm,-,N/A,,Mostly Cloudy,0,2014-01-12 09:56:00